Time,TemperatureF,DewpointF,PressureIn,WindDirection,WindDirectionDegrees,WindSpeedMPH,WindSpeedGustMPH,Humidity,HourlyPrecipIn,Conditions,Clouds,dailyrainin,SolarRadiationWatts/m^2,SoftwareType,DateUTC
2013-03-04 00:32:00,35.0,26.0,-100.00,SW,219,0.0,0.0,68,-99.99,,,0.02,0.000000,,2013-03-04 08:32:00,
2013-03-04 01:32:00,34.0,24.0,-100.00,SW,219,0.0,0.0,67,-99.99,,,0.02,0.000000,,2013-03-04 09:32:00,
2013-03-04 02:32:00,34.0,25.0,-100.00,South,182,0.0,0.0,68,-99.99,,,0.02,0.000000,,2013-03-04 10:32:00,
2013-03-04 03:32:00,33.0,23.0,-100.00,WSW,254,0.0,0.0,66,-99.99,,,0.02,0.000000,,2013-03-04 11:32:00,
2013-03-04 03:42:00,33.0,23.0,-100.00,WSW,254,0.0,0.0,66,-99.99,,,0.02,0.000000,,2013-03-04 11:42:00,
2013-03-04 03:52:00,33.0,23.0,-100.00,WSW,254,0.0,0.0,66,-99.99,,,0.02,0.000000,,2013-03-04 11:52:00,
2013-03-04 04:01:00,33.0,23.0,-100.00,WSW,254,0.0,0.0,66,-99.99,,,0.02,0.000000,,2013-03-04 12:01:00,
2013-03-04 04:32:00,36.0,25.0,-100.00,WSW,252,0.0,0.0,63,-99.99,,,0.02,0.000000,,2013-03-04 12:32:00,
2013-03-04 05:32:00,34.0,23.0,-100.00,WSW,247,0.0,0.0,65,-99.99,,,0.02,0.000000,,2013-03-04 13:32:00,
2013-03-04 06:32:00,35.0,23.0,-100.00,West,261,0.0,0.0,62,-99.99,,,0.02,0.000000,,2013-03-04 14:32:00,
2013-03-04 07:32:00,37.0,24.0,-100.00,WSW,250,0.0,0.0,60,-99.99,,,0.02,27.000000,,2013-03-04 15:32:00,
2013-03-04 08:32:00,39.0,25.0,-100.00,WSW,251,0.0,0.0,58,-99.99,,,0.02,151.000000,,2013-03-04 16:32:00,
2013-03-04 09:32:00,41.0,24.0,-100.00,WSW,254,0.0,0.0,51,-99.99,,,0.02,367.000000,,2013-03-04 17:32:00,
2013-03-04 10:32:00,42.0,25.0,-100.00,WSW,254,0.0,0.0,50,-99.99,,,-99.99,155.000000,,2013-03-04 18:32:00,
2013-03-04 11:01:00,42.0,25.0,-100.00,WSW,254,0.0,0.0,50,-99.99,,,-99.99,155.000000,,2013-03-04 19:01:00,
2013-03-04 11:32:00,44.0,22.0,-100.00,WSW,257,0.0,0.0,42,0.00,,,0.01,779.000000,,2013-03-04 19:32:00,
2013-03-04 12:32:00,46.0,26.0,-100.00,WSW,253,0.0,0.0,45,0.00,,,0.00,831.000000,,2013-03-04 20:32:00,
2013-03-04 13:01:00,46.0,26.0,-100.00,WSW,253,0.0,0.0,45,0.00,,,0.00,831.000000,,2013-03-04 21:01:00,
2013-03-04 13:32:00,48.0,26.0,-100.00,WSW,249,0.0,0.0,42,0.00,,,0.00,784.000000,,2013-03-04 21:32:00,
2013-03-04 13:43:00,48.0,26.0,-100.00,WSW,249,0.0,0.0,42,0.00,,,0.00,784.000000,,2013-03-04 21:43:00,
2013-03-04 13:52:00,48.0,26.0,-100.00,WSW,249,0.0,0.0,42,0.00,,,0.00,784.000000,,2013-03-04 21:52:00,
2013-03-04 14:01:00,48.0,26.0,-100.00,WSW,249,0.0,0.0,42,0.00,,,0.00,784.000000,,2013-03-04 22:01:00,
2013-03-04 14:32:00,48.0,22.0,-100.00,WSW,253,0.0,0.0,35,0.00,,,0.00,648.000000,,2013-03-04 22:32:00,
2013-03-04 14:43:00,48.0,22.0,-100.00,WSW,253,0.0,0.0,35,0.00,,,0.00,648.000000,,2013-03-04 22:43:00,
2013-03-04 14:52:00,48.0,22.0,-100.00,WSW,253,0.0,0.0,35,0.00,,,0.00,648.000000,,2013-03-04 22:52:00,
2013-03-04 15:32:00,48.0,24.0,-100.00,WSW,244,0.0,0.0,39,0.00,,,0.00,364.000000,,2013-03-04 23:32:00,
2013-03-04 15:52:00,48.0,24.0,-100.00,WSW,244,0.0,0.0,39,0.00,,,0.00,364.000000,,2013-03-04 23:52:00,
2013-03-04 16:01:00,48.0,24.0,-100.00,WSW,244,0.0,0.0,39,0.00,,,0.00,364.000000,,2013-03-05 00:01:00,
2013-03-04 16:32:00,47.0,25.0,-100.00,WSW,251,0.0,0.0,41,0.00,,,0.00,58.000000,,2013-03-05 00:32:00,
2013-03-04 16:42:00,47.0,25.0,-100.00,WSW,251,0.0,0.0,41,0.00,,,0.00,58.000000,,2013-03-05 00:42:00,
2013-03-04 16:52:00,47.0,25.0,-100.00,WSW,251,0.0,0.0,41,0.00,,,0.00,58.000000,,2013-03-05 00:52:00,
2013-03-04 17:01:00,47.0,25.0,-100.00,WSW,251,0.0,0.0,41,0.00,,,0.00,58.000000,,2013-03-05 01:01:00,
2013-03-04 18:32:00,40.0,23.0,-100.00,WSW,247,0.0,0.0,51,-99.99,,,0.00,2.000000,,2013-03-05 02:32:00,
2013-03-04 18:42:00,40.0,23.0,-100.00,WSW,247,0.0,0.0,51,-99.99,,,0.00,2.000000,,2013-03-05 02:42:00,
2013-03-04 18:52:00,40.0,23.0,-100.00,WSW,247,0.0,0.0,51,-99.99,,,0.00,2.000000,,2013-03-05 02:52:00,
2013-03-04 19:01:00,40.0,23.0,-100.00,WSW,247,0.0,0.0,51,-99.99,,,0.00,2.000000,,2013-03-05 03:01:00,
2013-03-04 19:32:00,38.0,25.0,-100.00,SW,216,0.0,0.0,58,0.00,,,0.00,0.000000,,2013-03-05 03:32:00,
2013-03-04 19:42:00,38.0,25.0,-100.00,SW,216,0.0,0.0,58,0.00,,,0.00,0.000000,,2013-03-05 03:42:00,
2013-03-04 19:52:00,38.0,25.0,-100.00,SW,216,0.0,0.0,58,0.00,,,0.00,0.000000,,2013-03-05 03:52:00,
2013-03-04 20:01:00,38.0,25.0,-100.00,SW,216,0.0,0.0,58,0.00,,,0.00,0.000000,,2013-03-05 04:01:00,
2013-03-04 20:32:00,38.0,25.0,-100.00,WSW,242,0.0,0.0,59,0.00,,,0.00,0.000000,,2013-03-05 04:32:00,
2013-03-04 20:42:00,38.0,25.0,-100.00,WSW,242,0.0,0.0,59,0.00,,,0.00,0.000000,,2013-03-05 04:42:00,
2013-03-04 20:52:00,38.0,25.0,-100.00,WSW,242,0.0,0.0,59,0.00,,,0.00,0.000000,,2013-03-05 04:52:00,
2013-03-04 21:32:00,38.0,24.0,-100.00,WSW,248,0.0,0.0,57,0.00,,,0.00,0.000000,,2013-03-05 05:32:00,
2013-03-04 22:32:00,37.0,23.0,-100.00,SW,230,0.0,0.0,57,0.00,,,0.00,0.000000,,2013-03-05 06:32:00,
2013-03-04 22:42:00,37.0,23.0,-100.00,SW,230,0.0,0.0,57,0.00,,,0.00,0.000000,,2013-03-05 06:42:00,
2013-03-04 22:52:00,37.0,23.0,-100.00,SW,230,0.0,0.0,57,0.00,,,0.00,0.000000,,2013-03-05 06:52:00,
2013-03-04 23:01:00,37.0,23.0,-100.00,SW,230,0.0,0.0,57,0.00,,,0.00,0.000000,,2013-03-05 07:01:00,
2013-03-04 23:32:00,36.0,21.0,-100.00,SW,228,0.0,0.0,55,0.00,,,0.00,0.000000,,2013-03-05 07:32:00,
2013-03-04 23:42:00,36.0,21.0,-100.00,SW,228,0.0,0.0,55,0.00,,,0.00,0.000000,,2013-03-05 07:42:00,
2013-03-04 23:52:00,36.0,21.0,-100.00,SW,228,0.0,0.0,55,0.00,,,0.00,0.000000,,2013-03-05 07:52:00,